CW3642 Weather Reports


Display with metric or nautical units.
time (UTC)temp
F
wind
direction
speed
MPH
gust
MPH
rain 1hr
in
rain 24hr
in
rain mn
in
humidity
%
barometer
mb
20260506035849 38 360 4.0 15.0 0.00 0.01 0.00 73 1010.1
20260506035349 38 360 5.0 15.0 0.00 0.01 0.01 73 1010.1
20260506034820 38 360 3.0 15.0 0.00 0.01 0.01 73 1010.1
20260506033819 38 360 5.0 15.0 0.00 0.01 0.01 73 1009.8
20260506033320 38 360 5.0 15.0 0.00 0.01 0.01 75 1009.7
20260506032849 38 360 8.0 15.0 0.00 0.01 0.01 75 1009.7
20260506031819 38 360 10.0 15.0 0.00 0.01 0.01 76 1009.7
20260506030850 38 360 2.0 15.0 0.00 0.01 0.01 76 1009.5
20260506030319 38 360 5.0 15.0 0.00 0.01 0.01 77 1009.5
20260506025849 38 360 2.0 15.0 0.00 0.01 0.01 77 1009.5
20260506025349 38 360 1.0 15.0 0.00 0.01 0.01 78 1009.5
20260506024819 38 360 3.0 15.0 0.00 0.01 0.01 78 1009.5
20260506024319 38 360 2.0 15.0 0.00 0.01 0.01 78 1009.4
20260506023849 39 360 2.0 15.0 0.00 0.01 0.01 78 1009.3
20260506023349 39 360 9.0 15.0 0.00 0.01 0.01 78 1009.2
20260506022820 39 360 4.0 15.0 0.00 0.01 0.01 78 1009.1
20260506022349 39 360 3.0 15.0 0.00 0.01 0.01 79 1009.1
20260506021850 39 360 4.0 15.0 0.00 0.01 0.01 79 1009.1
20260506021320 39 360 0.0 15.0 0.00 0.01 0.01 79 1009.0
20260506020819 39 360 5.0 15.0 0.00 0.01 0.01 79 1008.8
20260506014839 39 360 3.0 9.0 0.00 0.01 0.01 77 1008.5
20260506014339 39 360 5.0 9.0 0.00 0.01 0.01 77 1008.3
20260506013839 40 360 2.0 9.0 0.00 0.01 0.01 77 1008.3
20260506013339 40 360 4.0 9.0 0.00 0.01 0.01 78 1008.3
20260506012838 40 360 3.0 9.0 0.00 0.01 0.01 78 1008.2
20260506011838 40 360 6.0 9.0 0.00 0.01 0.01 78 1008.1
20260506011339 40 360 5.0 9.0 0.00 0.01 0.01 77 1008.1
20260506010339 41 360 12.0 9.0 0.00 0.01 0.01 76 1007.9
20260506005839 41 360 3.0 9.0 0.00 0.01 0.01 76 1007.8
20260506005339 41 360 1.0 9.0 0.00 0.01 0.01 76 1007.8
20260506004839 41 360 3.0 9.0 0.00 0.01 0.01 76 1007.6
20260506004339 42 360 4.0 9.0 0.00 0.01 0.01 75 1007.7
20260506003839 42 360 5.0 9.0 0.00 0.01 0.01 74 1007.7
20260506003339 42 360 1.0 9.0 0.00 0.01 0.01 73 1007.7
20260506002839 42 360 3.0 9.0 0.00 0.01 0.01 72 1007.6
20260506002339 42 360 5.0 9.0 0.00 0.01 0.01 72 1007.5
20260506001838 43 5 2.0 9.0 0.00 0.01 0.01 71 1007.5
20260506001339 43 360 4.0 9.0 0.00 0.01 0.01 72 1007.4
20260506000839 44 360 0.0 9.0 0.00 0.01 0.01 72 1007.5
20260506000339 44 360 1.0 9.0 0.00 0.01 0.01 70 1007.4
20260505235839 45 360 3.0 9.0 0.00 0.01 0.01 67 1007.4
20260505234839 46 360 4.0 9.0 0.00 0.02 0.01 60 1007.1
20260505234339 46 360 1.0 9.0 0.00 0.02 0.01 59 1006.9
20260505233839 47 360 0.0 9.0 0.00 0.03 0.01 58 1007.0
20260505233339 49 360 0.0 9.0 0.00 0.03 0.01 55 1007.0
20260505232339 51 360 0.0 9.0 0.00 0.04 0.01 47 1006.8
20260505231839 52 360 0.0 9.0 0.00 0.04 0.01 44 1006.6
20260505231339 52 360 0.0 9.0 0.00 0.05 0.01 44 1006.7
20260505230838 51 360 1.0 9.0 0.00 0.06 0.01 44 1006.7
20260505224838 51 360 6.0 9.0 0.00 0.08 0.01 43 1006.8
20260505223838 51 360 2.0 9.0 0.00 0.08 0.01 46 1006.7
20260505222839 51 360 1.0 9.0 0.00 0.08 0.01 45 1006.7
20260505222339 51 360 1.0 9.0 0.00 0.08 0.01 44 1006.7
20260505221838 51 360 6.0 9.0 0.00 0.08 0.01 44 1006.7
20260505221338 51 360 1.0 9.0 0.00 0.08 0.01 45 1006.7
20260505220838 52 360 3.0 9.0 0.00 0.08 0.01 45 1006.7
20260505215821 53 360 4.0 6.0 0.00 0.08 0.01 44 1006.5
20260505215321 53 360 8.0 6.0 0.00 0.08 0.01 44 1006.5
20260505214821 54 360 2.0 6.0 0.00 0.08 0.01 43 1006.5
20260505213321 54 360 4.0 6.0 0.00 0.08 0.01 42 1006.6
20260505212821 54 360 4.0 6.0 0.00 0.08 0.01 43 1006.6
20260505212321 54 360 6.0 6.0 0.00 0.08 0.01 43 1006.5
20260505211821 54 360 6.0 6.0 0.00 0.08 0.01 43 1006.5
20260505211321 54 360 8.0 6.0 0.00 0.08 0.01 41 1006.6
20260505210321 54 360 10.0 6.0 0.00 0.08 0.01 43 1006.6
20260505205821 54 360 8.0 6.0 0.00 0.08 0.01 42 1006.7
20260505205321 54 360 4.0 6.0 0.00 0.08 0.01 42 1006.7
20260505204821 54 360 6.0 6.0 0.00 0.08 0.01 43 1006.8
20260505202321 54 360 8.0 6.0 0.00 0.08 0.01 43 1006.5
20260505201321 54 360 6.0 6.0 0.00 0.08 0.01 43 1006.6
20260505200821 54 360 2.0 6.0 0.00 0.08 0.01 41 1006.6
20260505200321 53 360 1.0 6.0 0.00 0.08 0.01 44 1006.3
20260505195821 53 360 2.0 6.0 0.00 0.08 0.01 46 1006.3
20260505195321 53 360 4.0 6.0 0.00 0.08 0.01 42 1006.5
20260505194321 53 360 6.0 6.0 0.00 0.08 0.01 43 1006.5
20260505193821 53 360 5.0 6.0 0.00 0.08 0.01 45 1006.6
20260505193321 53 360 6.0 6.0 0.00 0.08 0.01 45 1006.5
20260505192821 53 360 4.0 6.0 0.00 0.08 0.01 44 1006.5
20260505192321 53 360 8.0 6.0 0.00 0.08 0.01 44 1006.4
20260505191821 53 360 6.0 6.0 0.00 0.08 0.01 45 1006.4
20260505191321 53 360 5.0 6.0 0.00 0.08 0.01 44 1006.5
20260505190321 52 360 3.0 6.0 0.00 0.08 0.01 45 1006.4
20260505185821 52 360 6.0 6.0 0.00 0.08 0.01 47 1006.4
20260505185321 53 360 5.0 6.0 0.00 0.08 0.01 47 1006.4
20260505184821 53 360 3.0 6.0 0.00 0.08 0.01 45 1006.3
20260505184321 52 360 0.0 6.0 0.00 0.08 0.01 49 1006.2
20260505183321 52 360 2.0 6.0 0.00 0.08 0.01 49 1006.0
20260505182821 52 360 4.0 6.0 0.00 0.08 0.01 48 1005.9
20260505182321 52 360 2.0 6.0 0.00 0.08 0.01 51 1005.8
20260505181821 52 360 8.0 6.0 0.00 0.08 0.01 49 1005.8
20260505181321 52 360 3.0 6.0 0.00 0.08 0.01 48 1005.8
20260505180822 51 360 10.0 10.0 0.00 0.08 0.01 50 1005.8
20260505175322 51 360 1.0 10.0 0.00 0.08 0.01 48 1005.8
20260505174322 51 360 3.0 10.0 0.00 0.08 0.01 50 1005.8
20260505173822 51 360 9.0 10.0 0.00 0.08 0.01 49 1005.7
20260505172320 51 360 1.0 0.0 0.00 0.08 0.01 52 1005.6
20260505171820 52 360 0.0 0.0 0.00 0.08 0.01 53 1005.6
20260505171320 52 360 4.0 0.0 0.00 0.08 0.01 51 1005.6
20260505170820 51 360 4.0 0.0 0.00 0.08 0.01 54 1005.6
20260505170320 51 360 2.0 0.0 0.00 0.08 0.01 54 1005.5
20260505165820 51 360 4.0 0.0 0.00 0.08 0.01 54 1005.5
20260505164850 51 360 2.0 0.0 0.00 0.08 0.01 54 1005.6
20260505163820 50 360 6.0 0.0 0.00 0.08 0.01 55 1005.5
20260505163320 50 360 2.0 0.0 0.00 0.08 0.01 61 1005.5
20260505162820 50 360 1.0 0.0 0.00 0.08 0.01 59 1005.4
20260505162320 49 360 1.0 0.0 0.00 0.08 0.01 60 1005.3
20260505161820 49 360 3.0 0.0 0.00 0.08 0.01 56 1005.4
20260505160820 49 360 6.0 0.0 0.00 0.08 0.01 60 1005.4
20260505160320 49 360 12.0 0.0 0.00 0.08 0.01 57 1005.4
20260505152820 48 360 3.0 0.0 0.00 0.08 0.01 63 1005.4
20260505152320 48 360 3.0 0.0 0.00 0.08 0.01 61 1005.4
20260505151820 48 360 5.0 0.0 0.00 0.08 0.01 60 1005.3
20260505151320 48 360 3.0 0.0 0.00 0.08 0.01 62 1005.3
20260505124825 42 360 0.0 0.0 0.00 0.08 0.01 75 1003.3
20260505124325 43 360 0.0 0.0 0.00 0.08 0.01 75 1003.3
20260505123825 43 360 0.0 0.0 0.00 0.08 0.01 73 1003.3
20260505123325 43 360 0.0 0.0 0.00 0.08 0.01 73 1003.3
20260505122825 43 360 2.0 0.0 0.00 0.08 0.01 72 1003.2
20260505122325 43 360 0.0 0.0 0.00 0.08 0.01 75 1003.1
20260505121825 43 360 0.0 0.0 0.00 0.08 0.01 73 1003.1
20260505120825 42 360 0.0 0.0 0.00 0.08 0.01 74 1002.8
20260505115325 42 360 0.0 0.0 0.00 0.08 0.01 73 1002.9
20260505114825 41 360 0.0 0.0 0.00 0.08 0.01 72 1002.8
20260505114325 41 360 0.0 0.0 0.00 0.08 0.01 73 1002.6
20260505113825 41 360 0.0 0.0 0.00 0.08 0.01 74 1002.5
20260505112825 40 360 1.0 0.0 0.00 0.08 0.01 77 1002.6
20260505112325 40 360 0.0 0.0 0.00 0.08 0.01 77 1002.4
20260505111825 40 360 0.0 0.0 0.01 0.08 0.01 79 1002.3
20260505111325 39 360 0.0 0.0 0.01 0.08 0.01 80 1002.3
20260505110825 39 360 0.0 0.0 0.01 0.08 0.01 81 1002.2
20260505101325 39 360 0.0 0.0 0.00 0.07 0.00 78 1001.7
20260505100825 40 360 0.0 0.0 0.00 0.07 0.00 78 1001.7
20260505095836 40 360 1.0 0.0 0.00 0.08 0.00 75 1001.6
20260505094336 40 360 0.0 0.0 0.00 0.08 0.00 75 1001.7
20260505093836 41 360 0.0 0.0 0.00 0.08 0.00 74 1001.6
20260505093336 41 360 1.0 0.0 0.00 0.08 0.00 73 1001.6
20260505092836 41 360 3.0 0.0 0.00 0.08 0.00 73 1001.4
20260505092336 41 360 0.0 0.0 0.00 0.08 0.00 74 1001.5
20260505091836 41 360 1.0 0.0 0.00 0.08 0.00 73 1001.5
20260505091336 41 360 0.0 0.0 0.00 0.08 0.00 74 1001.4
20260505090336 42 360 1.0 0.0 0.00 0.08 0.00 74 1001.4
20260505085836 42 360 0.0 0.0 0.00 0.08 0.00 74 1001.4
20260505085336 42 360 0.0 0.0 0.00 0.08 0.00 75 1001.3
20260505083836 42 360 0.0 0.0 0.00 0.08 0.00 72 1001.1
20260505083336 42 360 0.0 0.0 0.00 0.08 0.00 73 1001.2
20260505082836 42 360 0.0 0.0 0.00 0.08 0.00 72 1001.0
20260505081836 43 360 0.0 0.0 0.00 0.08 0.00 73 1001.2
20260505080336 43 360 0.0 0.0 0.00 0.08 0.00 73 1001.3
20260505075836 43 360 0.0 0.0 0.00 0.08 0.00 72 1001.3
20260505075336 43 360 0.0 0.0 0.00 0.08 0.00 75 1001.0
20260505074836 43 360 1.0 0.0 0.00 0.08 0.00 76 1001.0
20260505074336 43 360 0.0 0.0 0.00 0.08 0.00 80 1000.8
20260505073836 43 5 0.0 0.0 0.00 0.08 0.00 82 1000.8
20260505073336 43 5 0.0 0.0 0.00 0.08 0.00 81 1000.8
20260505072336 43 5 0.0 0.0 0.00 0.08 0.00 84 1000.7
20260505071836 43 5 0.0 0.0 0.00 0.08 0.00 84 1000.6
20260505071336 43 5 0.0 0.0 0.00 0.08 0.00 83 1000.6
20260505070836 43 5 0.0 0.0 0.00 0.08 0.00 82 1000.7
20260505070336 43 5 0.0 0.0 0.00 0.08 0.00 82 1000.6
20260505065836 43 5 0.0 0.0 0.00 0.08 0.00 81 1000.6
20260505065336 44 5 0.0 0.0 0.00 0.08 0.00 79 1000.6
20260505064836 44 5 0.0 0.0 0.00 0.08 0.00 79 1000.5
20260505064336 44 5 0.0 0.0 0.00 0.08 0.00 78 1000.5
20260505063836 44 5 0.0 0.0 0.00 0.08 0.00 77 1000.5
20260505063336 44 9 0.0 0.0 0.00 0.08 0.00 78 1000.7
20260505062836 44 5 0.0 0.0 0.00 0.08 0.00 79 1000.6
20260505062336 44 5 0.0 0.0 0.00 0.08 0.00 79 1000.5
20260505061836 44 5 0.0 0.0 0.00 0.08 0.00 79 1000.6
20260505060836 45 360 0.0 5.0 0.00 0.08 0.00 77 1000.5
20260505055849 45 360 0.0 5.0 0.00 0.08 0.00 77 1000.6
20260505055319 45 360 0.0 5.0 0.00 0.08 0.00 77 1000.6
20260505054819 45 360 0.0 5.0 0.00 0.08 0.00 76 1000.6
20260505054319 45 360 0.0 5.0 0.00 0.08 0.00 75 1000.5
20260505053819 45 360 0.0 5.0 0.00 0.08 0.00 79 1000.5
20260505053319 45 360 0.0 5.0 0.00 0.08 0.00 77 1000.5
20260505052319 46 360 0.0 5.0 0.00 0.08 0.00 72 1000.3
20260505051819 46 360 3.0 5.0 0.00 0.08 0.00 73 1000.2
20260505051319 46 360 3.0 5.0 0.00 0.08 0.00 72 1000.0
20260505050819 46 360 3.0 5.0 0.00 0.08 0.00 72 1000.0
20260505050319 46 360 5.0 5.0 0.00 0.08 0.00 73 999.9
20260505040819 46 360 0.0 5.0 0.00 0.08 0.00 82 999.0
20260505040319 46 360 2.0 5.0 0.00 0.08 0.00 80 999.0